• In Romania
  • List of Countries
  • For 7 days
  • Water Temperature
  • Satellite Maps
  • Weather Map
  • Weather Widgets
  • user-avatar
    Login

    Hourly Weather Shusha

    Today, 26 March, Sunday

    Time Temperature Precipitation Wind Pressure Humidity
    00:00 +1°C° 0 mm 1 mps 656 mmHg 85%
    01:00 +1°C° 0 mm 1 mps 656 mmHg 84%
    02:00 +1°C° 0 mm 1 mps 656 mmHg 84%
    03:00 0°C° 0 mm 1 mps 656 mmHg 81%
    04:00 0°C° 0 mm 1 mps 656 mmHg 80%
    05:00 0°C° 0 mm 1 mps 656 mmHg 79%
    06:00 0°C° 0 mm 1 mps 656 mmHg 78%
    07:00 +3°C° 0 mm 1 mps 657 mmHg 69%
    08:00 +5°C° 0 mm 1 mps 658 mmHg 61%
    09:00 +8°C° 0 mm 1 mps 658 mmHg 52%
    10:00 +9°C° 0 mm 1 mps 658 mmHg 50%
    11:00 +10°C° 0 mm 2 mps 658 mmHg 47%
    12:00 +12°C° 0 mm 2 mps 658 mmHg 44%
    13:00 +12°C° 0 mm 2 mps 658 mmHg 44%
    14:00 +12°C° 0 mm 2 mps 658 mmHg 44%
    15:00 +12°C° 0 mm 2 mps 657 mmHg 45%
    16:00 +9°C° 0 mm 2 mps 657 mmHg 54%
    17:00 +8°C° 0 mm 1 mps 657 mmHg 62%
    18:00 +6°C° 0 mm 1 mps 657 mmHg 71%
    19:00 +5°C° 0 mm 1 mps 657 mmHg 72%
    20:00 +5°C° 0 mm 1 mps 657 mmHg 72%
    21:00 +3°C° 0 mm 2 mps 657 mmHg 73%
    22:00 +3°C° 0 mm 2 mps 657 mmHg 71%
    23:00 +3°C° 0 mm 2 mps 657 mmHg 68%

    Tomorrow, 27 March, Monday

    Time Temperature Precipitation Wind Pressure Humidity
    00:00 +3°C° 0 mm 2 mps 657 mmHg 65%
    01:00 +3°C° 0 mm 2 mps 657 mmHg 64%
    02:00 +3°C° 0 mm 2 mps 657 mmHg 63%
    03:00 +2°C° 0 mm 2 mps 657 mmHg 62%
    04:00 +2°C° 0 mm 2 mps 657 mmHg 62%
    05:00 +1°C° 0 mm 3 mps 657 mmHg 62%
    06:00 +1°C° 0 mm 3 mps 657 mmHg 62%
    07:00 +5°C° 0 mm 2 mps 658 mmHg 55%
    08:00 +8°C° 0 mm 2 mps 658 mmHg 48%
    09:00 +12°C° 0 mm 2 mps 658 mmHg 41%
    10:00 +13°C° 0 mm 2 mps 658 mmHg 38%
    11:00 +13°C° 0 mm 3 mps 658 mmHg 35%
    12:00 +16°C° 0 mm 3 mps 658 mmHg 32%
    13:00 +16°C° 0 mm 3 mps 658 mmHg 32%
    14:00 +16°C° 0 mm 3 mps 657 mmHg 33%
    15:00 +15°C° 0 mm 4 mps 657 mmHg 33%
    16:00 +13°C° 0 mm 3 mps 656 mmHg 39%
    17:00 +12°C° 0 mm 2 mps 656 mmHg 46%
    18:00 +9°C° 0 mm 2 mps 655 mmHg 53%
    19:00 +8°C° 0 mm 2 mps 655 mmHg 54%
    20:00 +7°C° 0 mm 2 mps 655 mmHg 56%
    21:00 +6°C° 0 mm 2 mps 656 mmHg 57%
    22:00 +6°C° 0 mm 2 mps 655 mmHg 58%
    23:00 +5°C° 0 mm 2 mps 655 mmHg 59%

    Day after tomorrow, 28 March, Tuesday

    Time Temperature Precipitation Wind Pressure Humidity
    00:00 +5°C° 0 mm 2 mps 655 mmHg 59%
    01:00 +5°C° 0 mm 2 mps 655 mmHg 61%
    02:00 +4°C° 0 mm 2 mps 655 mmHg 62%
    03:00 +4°C° 0 mm 2 mps 655 mmHg 63%
    04:00 +4°C° 0 mm 2 mps 655 mmHg 64%
    05:00 +4°C° 0 mm 2 mps 655 mmHg 66%
    06:00 +3°C° 0 mm 2 mps 656 mmHg 67%
    07:00 +5°C° 0 mm 2 mps 657 mmHg 61%
    08:00 +7°C° 0 mm 3 mps 658 mmHg 56%
    09:00 +9°C° 0 mm 3 mps 659 mmHg 50%
    10:00 +9°C° 0.1 mm 3 mps 659 mmHg 50%
    11:00 +10°C° 0.1 mm 4 mps 659 mmHg 51%
    12:00 +10°C° 0.1 mm 4 mps 659 mmHg 51%
    13:00 +10°C° 0.1 mm 4 mps 658 mmHg 52%
    14:00 +10°C° 0.1 mm 3 mps 658 mmHg 53%
    15:00 +9°C° 0.1 mm 3 mps 658 mmHg 54%
    16:00 +8°C° 0.1 mm 3 mps 658 mmHg 60%
    17:00 +7°C° 0.1 mm 2 mps 658 mmHg 65%
    18:00 +7°C° 0.1 mm 1 mps 658 mmHg 71%
    19:00 +5°C° 0 mm 1 mps 658 mmHg 75%
    20:00 +4°C° 0 mm 1 mps 658 mmHg 79%
    21:00 +3°C° 0 mm 1 mps 658 mmHg 83%
    22:00 +3°C° 0 mm 1 mps 658 mmHg 82%
    23:00 +3°C° 0 mm 1 mps 658 mmHg 81%

    29 March, Wednesday

    Time Temperature Precipitation Wind Pressure Humidity
    00:00 +3°C° 0 mm 1 mps 657 mmHg 80%
    01:00 +2°C° 0 mm 1 mps 657 mmHg 80%
    02:00 +2°C° 0 mm 1 mps 657 mmHg 79%
    03:00 +2°C° 0 mm 1 mps 657 mmHg 78%
    04:00 +2°C° 0 mm 1 mps 657 mmHg 79%
    05:00 +2°C° 0 mm 1 mps 657 mmHg 80%
    06:00 +2°C° 0 mm 1 mps 657 mmHg 81%
    07:00 +4°C° 0 mm 1 mps 658 mmHg 70%
    08:00 +6°C° 0 mm 2 mps 658 mmHg 59%
    09:00 +9°C° 0 mm 2 mps 659 mmHg 48%
    10:00 +10°C° 0 mm 2 mps 659 mmHg 45%
    11:00 +11°C° 0 mm 3 mps 660 mmHg 42%
    12:00 +12°C° 0 mm 3 mps 660 mmHg 40%
    13:00 +12°C° 0 mm 3 mps 659 mmHg 40%
    14:00 +12°C° 0 mm 3 mps 659 mmHg 40%
    15:00 +12°C° 0 mm 3 mps 659 mmHg 40%
    16:00 +12°C° 0 mm 2 mps 659 mmHg 48%
    17:00 +9°C° 0 mm 2 mps 659 mmHg 55%
    18:00 +8°C° 0 mm 1 mps 659 mmHg 62%
    19:00 +7°C° 0 mm 1 mps 659 mmHg 68%
    20:00 +5°C° 0 mm 1 mps 660 mmHg 74%
    21:00 +4°C° 0 mm 1 mps 660 mmHg 79%
    22:00 +3°C° 0 mm 1 mps 661 mmHg 82%
    23:00 +3°C° 0 mm 1 mps 661 mmHg 85%

    30 March, Thursday

    Time Temperature Precipitation Wind Pressure Humidity
    00:00 +2°C° 0 mm 1 mps 661 mmHg 88%
    01:00 +2°C° 0 mm 1 mps 661 mmHg 90%
    02:00 +2°C° 0 mm 1 mps 661 mmHg 92%
    03:00 +1°C° 0 mm 1 mps 661 mmHg 94%
    04:00 +1°C° 0 mm 1 mps 661 mmHg 94%
    05:00 +1°C° 0 mm 1 mps 662 mmHg 94%
    06:00 +1°C° 0 mm 1 mps 662 mmHg 94%
    07:00 +3°C° 0 mm 1 mps 663 mmHg 87%
    08:00 +3°C° 0 mm 2 mps 663 mmHg 80%
    09:00 +5°C° 0 mm 2 mps 663 mmHg 74%
    10:00 +6°C° 0 mm 2 mps 663 mmHg 70%
    11:00 +7°C° 0 mm 2 mps 663 mmHg 66%
    12:00 +8°C° 0 mm 2 mps 663 mmHg 63%
    13:00 +8°C° 0 mm 2 mps 662 mmHg 63%
    14:00 +8°C° 0 mm 2 mps 661 mmHg 64%
    15:00 +8°C° 0 mm 2 mps 661 mmHg 64%
    16:00 +7°C° 0 mm 2 mps 660 mmHg 70%
    17:00 +7°C° 0 mm 1 mps 660 mmHg 76%
    18:00 +5°C° 0 mm 1 mps 659 mmHg 82%
    19:00 +4°C° 0 mm 1 mps 659 mmHg 85%
    20:00 +3°C° 0 mm 1 mps 659 mmHg 88%
    21:00 +1°C° 0 mm 0 mps 659 mmHg 90%
    22:00 +2°C° 0 mm 1 mps 659 mmHg 89%
    23:00 +2°C° 0 mm 1 mps 658 mmHg 87%

    31 March, Friday

    Time Temperature Precipitation Wind Pressure Humidity
    00:00 +2°C° 0 mm 1 mps 658 mmHg 85%
    01:00 +2°C° 0 mm 1 mps 658 mmHg 84%
    02:00 +2°C° 0 mm 1 mps 657 mmHg 83%
    03:00 +2°C° 0 mm 1 mps 657 mmHg 82%
    04:00 +2°C° 0 mm 1 mps 657 mmHg 81%
    05:00 +2°C° 0 mm 1 mps 657 mmHg 79%
    06:00 +3°C° 0 mm 1 mps 657 mmHg 78%
    07:00 +5°C° 0 mm 1 mps 658 mmHg 68%
    08:00 +8°C° 0 mm 1 mps 659 mmHg 59%
    09:00 +11°C° 0 mm 1 mps 660 mmHg 50%
    10:00 +12°C° 0 mm 1 mps 660 mmHg 47%
    11:00 +13°C° 0 mm 2 mps 660 mmHg 44%
    12:00 +14°C° 0 mm 2 mps 660 mmHg 42%
    13:00 +14°C° 0.1 mm 2 mps 660 mmHg 43%
    14:00 +15°C° 0.1 mm 2 mps 660 mmHg 44%
    15:00 +15°C° 0.1 mm 2 mps 659 mmHg 45%
    16:00 +13°C° 0 mm 2 mps 659 mmHg 52%
    17:00 +10°C° 0 mm 2 mps 659 mmHg 59%
    18:00 +9°C° 0 mm 1 mps 659 mmHg 67%
    19:00 +7°C° 0.1 mm 2 mps 659 mmHg 70%
    20:00 +7°C° 0.1 mm 2 mps 660 mmHg 74%
    21:00 +6°C° 0.1 mm 2 mps 660 mmHg 77%
    22:00 +5°C° 0.2 mm 2 mps 660 mmHg 78%
    23:00 +5°C° 0.2 mm 2 mps 660 mmHg 79%
    Show more